EW8484 Weather Reports


Display with metric or nautical units.
time (UTC)temp
F
wind
direction
speed
MPH
gust
MPH
rain 1hr
in
rain 24hr
in
rain mn
in
humidity
%
barometer
mb
20260507192526 60 351 7.0 18.0 0.00 0.24 0.05 25 1009.1
20260507192026 60 4 7.0 17.0 0.00 0.24 0.05 27 1009.0
20260507191526 60 343 8.0 16.0 0.00 0.24 0.05 27 1009.1
20260507191026 60 333 6.0 12.0 0.00 0.24 0.05 26 1009.1
20260507190526 61 348 7.0 12.0 0.00 0.24 0.05 27 1009.2
20260507190026 61 335 5.0 14.0 0.00 0.24 0.05 26 1009.2
20260507185526 60 354 4.0 12.0 0.00 0.24 0.05 27 1009.1
20260507185025 60 17 4.0 10.0 0.00 0.24 0.05 25 1009.1
20260507184526 59 340 6.0 11.0 0.00 0.24 0.05 28 1009.2
20260507184026 59 350 7.0 16.0 0.00 0.25 0.05 28 1009.2
20260507183526 60 353 7.0 14.0 0.00 0.25 0.05 29 1009.2
20260507183026 60 353 3.0 10.0 0.00 0.25 0.05 31 1009.3
20260507182526 60 350 8.0 17.0 0.00 0.25 0.05 24 1009.4
20260507182026 61 348 6.0 13.0 0.00 0.25 0.05 25 1009.5
20260507181526 61 341 5.0 10.0 0.00 0.25 0.05 25 1009.5
20260507181025 61 337 3.0 8.0 0.00 0.26 0.05 29 1009.6
20260507180526 60 323 4.0 14.0 0.00 0.26 0.05 27 1009.7
20260507180026 60 346 3.0 8.0 0.00 0.26 0.05 30 1009.8
20260507175545 59 355 7.0 16.0 0.00 0.27 0.05 29 1009.6
20260507175025 59 358 5.0 11.0 0.00 0.27 0.05 27 1009.7
20260507174525 59 1 4.0 9.0 0.00 0.27 0.05 30 1009.7
20260507174046 59 351 7.0 14.0 0.00 0.28 0.05 28 1009.6
20260507173525 59 350 7.0 14.0 0.00 0.28 0.05 28 1009.7
20260507173046 59 359 4.0 12.0 0.00 0.29 0.05 27 1009.9
20260507172525 59 316 3.0 9.0 0.00 0.29 0.05 28 1009.9
20260507172025 59 333 4.0 11.0 0.00 0.29 0.05 28 1009.9
20260507171525 59 349 7.0 12.0 0.00 0.29 0.05 28 1009.9
20260507171046 59 359 5.0 12.0 0.00 0.29 0.05 26 1010.0
20260507170525 58 347 7.0 13.0 0.00 0.29 0.05 29 1010.0
20260507170026 58 342 7.0 13.0 0.00 0.29 0.05 27 1009.9
20260507165525 58 341 6.0 12.0 0.00 0.29 0.05 32 1010.0
20260507165025 57 360 6.0 12.0 0.00 0.29 0.05 30 1010.1
20260507164525 58 341 6.0 16.0 0.00 0.29 0.05 29 1010.2
20260507164026 58 342 5.0 15.0 0.00 0.29 0.05 28 1010.2
20260507163525 58 347 6.0 12.0 0.00 0.29 0.05 28 1010.4
20260507163107 58 336 5.0 12.0 0.00 0.29 0.05 29 1010.6
20260507162525 58 338 6.0 15.0 0.00 0.29 0.05 34 1010.4
20260507162025 58 345 5.0 11.0 0.00 0.29 0.05 31 1010.6
20260507161525 58 343 5.0 11.0 0.00 0.29 0.05 30 1010.8
20260507161045 58 334 3.0 12.0 0.00 0.29 0.05 30 1010.8
20260507160525 58 317 3.0 9.0 0.00 0.29 0.05 29 1010.8
20260507160025 57 326 4.0 11.0 0.00 0.29 0.05 34 1010.8
20260507155525 57 350 7.0 14.0 0.00 0.29 0.05 32 1010.8
20260507155025 57 342 7.0 15.0 0.00 0.29 0.05 33 1010.9
20260507154527 57 350 6.0 14.0 0.00 0.29 0.05 32 1010.8
20260507154028 57 7 5.0 12.0 0.00 0.29 0.05 32 1010.9
20260507153527 56 15 3.0 9.0 0.00 0.29 0.05 38 1010.9
20260507153029 56 352 6.0 16.0 0.00 0.29 0.05 31 1010.9
20260507152547 56 342 6.0 13.0 0.00 0.29 0.05 30 1011.0
20260507152027 56 352 6.0 14.0 0.00 0.29 0.05 32 1011.0
20260507151548 56 345 8.0 16.0 0.00 0.29 0.05 37 1010.9
20260507151027 56 344 7.0 14.0 0.00 0.29 0.05 34 1010.9
20260507150527 56 350 8.0 18.0 0.00 0.29 0.05 34 1011.0
20260507150025 56 346 5.0 11.0 0.00 0.29 0.05 33 1011.0
20260507145527 56 341 6.0 18.0 0.00 0.29 0.05 35 1011.1
20260507145027 56 349 4.0 11.0 0.00 0.29 0.05 37 1011.1
20260507144527 56 347 6.0 12.0 0.00 0.29 0.05 33 1011.1
20260507144047 55 320 4.0 9.0 0.00 0.29 0.05 33 1011.2
20260507143528 55 350 5.0 12.0 0.00 0.29 0.05 35 1011.3
20260507143027 55 343 4.0 11.0 0.00 0.29 0.05 36 1011.2
20260507142547 55 350 8.0 17.0 0.00 0.29 0.05 36 1011.2
20260507142107 55 346 6.0 13.0 0.00 0.29 0.05 34 1011.2
20260507141527 55 317 3.0 9.0 0.00 0.29 0.05 37 1011.2
20260507141027 54 332 5.0 16.0 0.00 0.29 0.05 36 1011.2
20260507140527 54 345 5.0 11.0 0.00 0.29 0.05 39 1011.2
20260507140107 54 336 5.0 10.0 0.00 0.29 0.05 40 1011.3
20260507135527 53 345 5.0 12.0 0.00 0.29 0.05 42 1011.2
20260507135027 53 331 5.0 16.0 0.00 0.29 0.05 42 1011.1
20260507134548 53 339 7.0 16.0 0.00 0.29 0.05 38 1011.2
20260507134047 53 327 4.0 12.0 0.00 0.29 0.05 41 1011.2
20260507133527 53 331 4.0 15.0 0.00 0.29 0.05 39 1011.1
20260507133047 53 342 4.0 11.0 0.00 0.29 0.05 48 1011.0
20260507132527 52 345 6.0 11.0 0.00 0.29 0.05 42 1011.0
20260507132027 52 346 6.0 14.0 0.00 0.29 0.05 43 1011.1
20260507131547 51 349 6.0 14.0 0.00 0.29 0.05 46 1011.0
20260507131027 51 338 6.0 15.0 0.00 0.29 0.05 44 1011.0
20260507130527 51 331 5.0 14.0 0.00 0.29 0.05 41 1010.9
20260507130027 51 341 6.0 13.0 0.00 0.29 0.05 39 1011.0
20260507125527 51 344 7.0 15.0 0.00 0.29 0.05 36 1011.1
20260507125027 51 333 5.0 11.0 0.00 0.29 0.05 37 1011.1
20260507124527 51 343 6.0 12.0 0.00 0.29 0.05 38 1011.1
20260507124027 50 341 5.0 11.0 0.00 0.29 0.05 40 1011.0
20260507123547 50 342 5.0 12.0 0.00 0.29 0.05 38 1011.0
20260507123027 50 343 5.0 11.0 0.00 0.29 0.05 40 1011.0
20260507122527 49 336 2.0 5.0 0.00 0.29 0.05 44 1010.9
20260507122027 49 339 3.0 9.0 0.00 0.29 0.05 44 1010.9
20260507121528 49 348 3.0 9.0 0.00 0.29 0.05 46 1010.9
20260507121048 49 350 3.0 8.0 0.00 0.29 0.05 47 1010.9
20260507120527 48 337 2.0 5.0 0.00 0.29 0.05 48 1011.0
20260507120027 48 357 2.0 5.0 0.00 0.29 0.05 48 1011.0
20260507115527 48 346 3.0 6.0 0.00 0.29 0.05 48 1011.0
20260507115027 48 0.0 2.0 0.00 0.29 0.05 49 1010.9
20260507114527 48 12 1.0 3.0 0.00 0.29 0.05 49 1010.8
20260507114047 48 3 1.0 4.0 0.00 0.29 0.05 49 1010.6
20260507113527 48 336 1.0 4.0 0.00 0.29 0.05 49 1010.7
20260507113027 48 0.0 1.0 0.00 0.29 0.05 49 1010.6
20260507112527 48 0.0 1.0 0.00 0.29 0.05 49 1010.6
20260507112047 48 0.0 1.0 0.00 0.29 0.05 49 1010.6
20260507111527 48 188 1.0 2.0 0.00 0.29 0.05 49 1010.5
20260507111027 47 0.0 1.0 0.00 0.29 0.05 49 1010.2
20260507110527 47 0.0 1.0 0.00 0.29 0.05 49 1010.2
20260507110027 47 188 1.0 2.0 0.00 0.29 0.05 49 1010.1
20260507105527 47 0.0 2.0 0.00 0.29 0.05 49 1010.3
20260507105027 47 0.0 0.0 0.00 0.29 0.05 49 1010.2
20260507104527 47 0.0 0.0 0.00 0.29 0.05 49 1010.2
20260507104027 47 0.0 0.0 0.01 0.29 0.05 49 1010.0
20260507103526 46 0.0 0.0 0.01 0.29 0.05 49 1009.9
20260507103027 46 0.0 0.0 0.01 0.29 0.05 49 1009.7
20260507102526 46 0.0 1.0 0.01 0.29 0.05 49 1009.8
20260507102026 46 0.0 1.0 0.01 0.29 0.05 49 1009.9
20260507101527 46 0.0 1.0 0.01 0.29 0.05 49 1009.9
20260507101047 46 0.0 3.0 0.01 0.29 0.05 49 1009.7
20260507100527 46 0.0 0.0 0.01 0.29 0.05 49 1009.7
20260507100026 46 0.0 0.0 0.01 0.29 0.05 49 1009.6
20260507095527 46 0.0 0.0 0.01 0.29 0.05 49 1009.6
20260507095027 46 0.0 0.0 0.01 0.29 0.05 49 1009.5
20260507094547 47 0.0 0.0 0.01 0.29 0.05 49 1009.6
20260507094027 47 0.0 1.0 0.00 0.28 0.04 49 1009.5
20260507093527 47 0.0 1.0 0.00 0.28 0.04 49 1009.6
20260507093047 47 346 1.0 2.0 0.00 0.28 0.04 49 1009.4
20260507092527 47 0.0 1.0 0.00 0.28 0.04 49 1009.8
20260507092026 47 0.0 1.0 0.00 0.28 0.04 49 1009.7
20260507091547 47 0.0 1.0 0.00 0.28 0.04 49 1009.7
20260507091026 47 0.0 1.0 0.00 0.28 0.04 49 1009.5
20260507090527 47 0.0 1.0 0.00 0.28 0.04 49 1009.7
20260507090047 47 346 1.0 2.0 0.00 0.28 0.04 49 1009.8
20260507085546 47 0.0 1.0 0.00 0.28 0.04 49 1009.8
20260507085026 47 346 1.0 3.0 0.00 0.28 0.04 49 1009.7
20260507084527 47 0.0 0.0 0.00 0.28 0.04 49 1010.1
20260507084026 47 0.0 1.0 0.01 0.28 0.04 48 1010.0
20260507083526 48 0.0 0.0 0.01 0.28 0.04 48 1009.9
20260507083027 48 0.0 0.0 0.01 0.28 0.04 48 1010.2
20260507082527 48 0.0 0.0 0.01 0.28 0.04 48 1010.3
20260507082026 48 0.0 0.0 0.01 0.28 0.04 48 1010.3
20260507081546 48 0.0 1.0 0.01 0.28 0.04 48 1010.1
20260507081026 48 0.0 1.0 0.01 0.28 0.04 48 1010.0
20260507080526 48 0.0 0.0 0.01 0.28 0.04 48 1010.1
20260507080026 48 346 1.0 4.0 0.01 0.28 0.04 48 1009.8
20260507075546 48 0.0 4.0 0.01 0.28 0.04 48 1009.7
20260507075107 49 0.0 0.0 0.01 0.28 0.04 48 1009.8
20260507074526 49 0.0 0.0 0.01 0.28 0.04 48 1009.6
20260507074027 49 0.0 0.0 0.00 0.27 0.03 48 1009.8
20260507073526 49 0.0 0.0 0.00 0.27 0.03 48 1010.0
20260507073027 49 0.0 0.0 0.00 0.27 0.03 48 1009.8
20260507072627 49 0.0 0.0 0.00 0.27 0.03 48 1009.8
20260507072047 49 0.0 0.0 0.00 0.27 0.03 48 1009.8
20260507071546 49 0.0 0.0 0.00 0.27 0.03 48 1009.3
20260507071026 49 0.0 0.0 0.00 0.27 0.03 48 1009.1
20260507070526 49 0.0 0.0 0.01 0.27 0.03 48 1009.7
20260507070027 49 0.0 0.0 0.01 0.27 0.03 48 1009.7
20260507065547 49 0.0 0.0 0.01 0.27 0.03 48 1009.8
20260507065046 50 0.0 0.0 0.01 0.27 0.03 48 1009.8
20260507064526 50 0.0 0.0 0.01 0.27 0.03 48 1009.6
20260507064026 50 0.0 0.0 0.01 0.27 0.03 48 1009.5
20260507063526 50 0.0 0.0 0.01 0.27 0.03 48 1009.4
20260507063107 50 0.0 0.0 0.01 0.27 0.03 48 1009.2
20260507062546 50 0.0 0.0 0.01 0.27 0.03 48 1009.0
20260507062026 50 0.0 0.0 0.01 0.27 0.03 48 1009.0
20260507061526 50 0.0 0.0 0.01 0.27 0.03 48 1008.8
20260507061026 50 0.0 0.0 0.01 0.27 0.03 48 1008.9
20260507060526 50 0.0 0.0 0.00 0.26 0.02 48 1009.0
20260507060026 50 0.0 0.0 0.00 0.26 0.02 48 1009.1
20260507055526 50 0.0 0.0 0.00 0.26 0.02 48 1009.4
20260507055047 50 0.0 0.0 0.00 0.26 0.02 48 1009.3
20260507054607 50 0.0 0.0 0.00 0.26 0.02 48 1009.5
20260507054026 50 0.0 0.0 0.01 0.26 0.02 48 1009.5
20260507053526 50 0.0 0.0 0.01 0.26 0.02 48 1009.6
20260507053026 50 0.0 0.0 0.01 0.26 0.02 47 1009.8
20260507052527 50 0.0 0.0 0.01 0.26 0.02 47 1009.4
20260507052046 50 0.0 0.0 0.01 0.26 0.02 47 1009.6
20260507051526 50 0.0 0.0 0.01 0.26 0.02 47 1009.6
20260507051026 50 0.0 0.0 0.01 0.26 0.02 47 1009.7
20260507050526 50 0.0 0.0 0.01 0.26 0.02 47 1010.1
20260507050026 51 0.0 0.0 0.02 0.26 0.02 47 1010.1
20260507045526 51 0.0 0.0 0.02 0.26 0.02 47 1010.1
20260507045026 51 0.0 0.0 0.02 0.26 0.02 47 1009.8
20260507044526 51 0.0 0.0 0.02 0.26 0.02 47 1010.0
20260507044026 51 0.0 0.0 0.01 0.25 0.01 47 1009.8
20260507043526 51 0.0 0.0 0.02 0.25 0.01 47 1009.9
20260507043046 51 0.0 0.0 0.02 0.25 0.01 47 1009.9
20260507042527 51 0.0 0.0 0.02 0.25 0.01 47 1009.8
20260507042026 51 0.0 0.0 0.03 0.25 0.01 47 1009.8
20260507041526 51 0.0 0.0 0.03 0.25 0.01 47 1009.7
20260507041026 51 0.0 0.0 0.03 0.25 0.01 47 1009.8
20260507040526 51 0.0 0.0 0.04 0.25 0.01 47 1009.7
20260507040027 51 0.0 0.0 0.03 0.24 0.24 47 1009.6
20260507035546 51 0.0 0.0 0.03 0.24 0.24 47 1009.6
20260507035026 51 0.0 0.0 0.04 0.24 0.24 47 1009.7
20260507034526 52 0.0 0.0 0.04 0.24 0.24 47 1009.8
20260507034026 52 0.0 0.0 0.04 0.24 0.24 46 1009.7
20260507033526 52 0.0 0.0 0.04 0.23 0.23 46 1009.8
20260507033026 52 0.0 1.0 0.04 0.23 0.23 46 1010.0
20260507032526 52 350 1.0 3.0 0.04 0.23 0.23 46 1009.9
20260507032027 52 351 1.0 4.0 0.03 0.22 0.22 46 1009.8
20260507031526 52 352 2.0 5.0 0.03 0.22 0.22 46 1009.8
20260507031026 52 348 2.0 6.0 0.03 0.22 0.22 46 1009.6
20260507030526 53 349 4.0 9.0 0.02 0.21 0.21 45 1009.8
20260507030046 53 346 5.0 11.0 0.02 0.21 0.21 46 1009.6
20260507025526 54 349 4.0 8.0 0.02 0.21 0.21 46 1009.5
20260507025026 55 333 1.0 3.0 0.01 0.20 0.20 46 1009.4
20260507024526 55 0.0 1.0 0.01 0.20 0.20 46 1009.5
20260507024026 55 0.0 0.0 0.01 0.20 0.20 46 1009.2
20260507023526 55 0.0 0.0 0.00 0.19 0.19 47 1009.3
20260507023026 55 0.0 1.0 0.01 0.19 0.19 46 1009.3
20260507022547 55 0.0 1.0 0.01 0.19 0.19 46 1009.1
20260507022026 56 0.0 1.0 0.01 0.19 0.19 46 1009.0
20260507021526 56 327 1.0 3.0 0.01 0.19 0.19 46 1008.9
20260507021026 56 0.0 1.0 0.01 0.19 0.19 46 1008.9
20260507020526 56 347 2.0 5.0 0.01 0.19 0.19 46 1008.6
20260507020026 56 355 1.0 4.0 0.01 0.19 0.19 46 1008.7
20260507015526 57 340 1.0 4.0 0.01 0.19 0.19 46 1008.9
20260507015026 57 333 1.0 3.0 0.01 0.19 0.19 46 1008.9
20260507014526 58 0.0 2.0 0.01 0.19 0.19 46 1008.9
20260507014026 58 0.0 2.0 0.01 0.19 0.19 46 1008.7
20260507013526 58 0.0 2.0 0.01 0.19 0.19 46 1008.7
20260507013026 58 14 1.0 3.0 0.00 0.18 0.18 47 1008.6
20260507012526 58 108 2.0 4.0 0.00 0.18 0.18 47 1008.5
20260507012026 58 223 1.0 4.0 0.00 0.18 0.18 47 1008.3
20260507011526 58 91 1.0 7.0 0.00 0.18 0.18 47 1008.3
20260507011026 58 210 1.0 3.0 0.00 0.18 0.18 47 1008.1
20260507010526 58 194 1.0 4.0 0.00 0.18 0.18 47 1008.0
20260507010026 58 183 1.0 4.0 0.00 0.18 0.18 47 1008.0
20260507005526 58 143 1.0 4.0 0.00 0.18 0.18 47 1008.1
20260507005026 58 191 1.0 5.0 0.00 0.18 0.18 47 1008.0
20260507004525 58 162 1.0 3.0 0.00 0.18 0.18 46 1007.8
20260507004026 58 0.0 2.0 0.00 0.18 0.18 47 1007.9
20260507003546 58 172 2.0 6.0 0.00 0.18 0.18 47 1007.9
20260507003026 58 191 2.0 3.0 0.00 0.18 0.18 47 1007.9
20260507002526 58 184 2.0 5.0 0.00 0.18 0.18 47 1007.9
20260507002026 58 216 2.0 3.0 0.00 0.18 0.18 47 1007.8
20260507001526 58 202 1.0 4.0 0.00 0.18 0.18 47 1007.8
20260507001046 58 154 2.0 5.0 0.00 0.18 0.18 46 1007.7
20260507000526 58 238 1.0 4.0 0.00 0.18 0.18 46 1007.8
20260507000026 58 0.0 2.0 0.00 0.18 0.18 46 1007.6
20260506235526 58 191 1.0 4.0 0.00 0.18 0.18 46 1007.6
20260506235026 58 191 1.0 3.0 0.00 0.18 0.18 46 1007.6
20260506234526 58 171 2.0 10.0 0.00 0.18 0.18 46 1007.6
20260506234026 58 258 1.0 2.0 0.00 0.18 0.18 47 1007.5
20260506233526 58 227 2.0 4.0 0.00 0.18 0.18 46 1007.5
20260506233026 58 194 1.0 3.0 0.00 0.18 0.18 46 1007.4
20260506232526 58 167 1.0 3.0 0.01 0.18 0.18 46 1007.4
20260506232026 58 163 2.0 5.0 0.01 0.18 0.18 46 1007.4
20260506231526 58 158 2.0 4.0 0.01 0.18 0.18 46 1007.3
20260506231026 58 137 1.0 4.0 0.02 0.18 0.18 46 1007.3
20260506230526 58 0.0 2.0 0.02 0.18 0.18 46 1007.4
20260506230026 58 204 2.0 7.0 0.02 0.18 0.18 46 1007.2
20260506225525 58 161 1.0 2.0 0.03 0.18 0.18 46 1007.2
20260506225046 58 121 2.0 5.0 0.03 0.18 0.18 46 1007.2
20260506224526 58 175 1.0 3.0 0.03 0.18 0.18 46 1007.2
20260506224026 59 242 2.0 9.0 0.03 0.18 0.18 46 1007.2
20260506223526 59 196 1.0 3.0 0.03 0.18 0.18 46 1007.1
20260506223026 59 202 1.0 3.0 0.04 0.18 0.18 46 1007.1
20260506222526 59 203 1.0 3.0 0.03 0.17 0.17 46 1007.1
20260506222025 59 184 1.0 3.0 0.03 0.17 0.17 46 1007.2
20260506221545 59 218 1.0 5.0 0.03 0.17 0.17 46 1007.2
20260506221026 59 170 1.0 3.0 0.02 0.16 0.16 46 1007.3
20260506220525 59 159 1.0 4.0 0.02 0.16 0.16 46 1007.3
20260506220026 59 161 1.0 4.0 0.02 0.16 0.16 46 1007.4
20260506215525 59 185 1.0 5.0 0.01 0.15 0.15 46 1007.4
20260506215025 59 184 1.0 2.0 0.01 0.15 0.15 46 1007.4
20260506214525 59 184 1.0 3.0 0.01 0.15 0.15 46 1007.5
20260506214026 59 171 1.0 2.0 0.02 0.15 0.15 46 1007.3
20260506213526 59 205 2.0 7.0 0.02 0.15 0.15 46 1007.4
20260506213025 59 199 1.0 3.0 0.02 0.14 0.14 46 1007.7
20260506212526 59 207 1.0 3.0 0.03 0.14 0.14 46 1007.6
20260506212025 59 186 1.0 2.0 0.04 0.14 0.14 46 1007.5
20260506211546 59 179 2.0 6.0 0.04 0.14 0.14 46 1007.5
20260506211025 59 204 1.0 4.0 0.05 0.14 0.14 45 1007.5
20260506210525 59 186 1.0 3.0 0.05 0.14 0.14 45 1007.6
20260506210026 59 190 1.0 2.0 0.05 0.14 0.14 45 1007.6
20260506205526 59 209 1.0 3.0 0.06 0.14 0.14 45 1007.6
20260506205025 59 206 1.0 3.0 0.07 0.14 0.14 45 1007.7
20260506204525 59 178 1.0 2.0 0.07 0.14 0.14 45 1007.8
20260506204025 59 187 1.0 4.0 0.06 0.13 0.13 44 1007.8
20260506203526 59 182 2.0 6.0 0.07 0.13 0.13 44 1007.9
20260506203025 59 195 1.0 3.0 0.06 0.12 0.12 43 1007.9
20260506202525 59 181 2.0 5.0 0.06 0.11 0.11 43 1008.0
20260506202027 59 160 1.0 2.0 0.05 0.10 0.10 42 1007.9
20260506201527 59 144 1.0 3.0 0.05 0.10 0.10 42 1007.9
20260506201027 59 151 1.0 3.0 0.04 0.09 0.09 42 1008.0
20260506200525 59 199 1.0 4.0 0.04 0.09 0.09 41 1008.0
20260506200047 59 264 1.0 3.0 0.04 0.09 0.09 41 1008.1
20260506195527 59 272 1.0 3.0 0.03 0.08 0.08 41 1008.2
20260506195027 59 251 1.0 4.0 0.02 0.07 0.07 40 1008.2
20260506194527 59 180 1.0 4.0 0.02 0.07 0.07 40 1008.3
20260506194027 59 195 2.0 4.0 0.03 0.07 0.07 40 1008.4
20260506193528 60 172 3.0 10.0 0.02 0.06 0.06 40 1008.4
20260506193027 60 174 2.0 6.0 0.02 0.06 0.06 40 1008.4